Weather Roundup
Issued by NWS Corpus Christi, TX

Home | Current Version | Previous Version | Text Only | Print | Product List | Glossary On
Versions: 1 2 3 4 5 6 7 8 9 10 11 12 13 14 15 16 17 18 19 20 21 22 23 24 25 26 27 28 29 30 31 32 33 34 35 36 37 38 39 40 41 42 43 44 45 46 47 48 49 50
000
ASUS44 KCRP 220210
HRRCRP

SOUTH TEXAS REGIONAL WEATHER ROUNDUP
NATIONAL WEATHER SERVICE CORPUS CHRISTI TX
800 PM CST THU FEB 21 2019


TXZ229>244-220300-
...CORPUS CHRISTI AREA OBSERVATIONS...

CITY           SKY/WX    TMP DP  RH WIND       PRES   REMARKS
CORPUS CHRISTI CLOUDY    59  53  80 NE15      29.87R
NAS CORPUS CHR CLOUDY    59  54  83 NE13      29.87R
ROCKPORT       CLOUDY    56  53  90 NE8       29.88R
KINGSVILLE ARP CLOUDY    62  59  89 E8        29.87R
KINGSVILLE NAS CLOUDY    61  55  81 NE7       29.87R
ALICE          CLOUDY    61  54  77 E10       29.86R
$$

...VICTORIA AREA OBSERVATIONS...

CITY           SKY/WX    TMP DP  RH WIND       PRES   REMARKS
PORT LAVACA    CLOUDY    56  54  91 NE13      29.88
VICTORIA       CLOUDY    54  51  90 N9        29.89R
BEEVILLE       CLOUDY    60  53  77 NE10      29.87R
PLEASANTON     CLOUDY    56  49  76 E10       29.89R
SAN ANTONIO    CLOUDY    54  45  71 NE7       29.89R
$$

...LAREDO AREA OBSERVATIONS...

CITY           SKY/WX    TMP DP  RH WIND       PRES   REMARKS
LAREDO         CLOUDY    65  56  72 E13       29.84R
COTULLA        CLOUDY    58  51  78 E10       29.87R
DEL RIO        MOCLDY    61  45  55 E13       29.81R
MCALLEN        CLOUDY    64  61  90 NE13      29.84R
HEBBRONVILLE   CLOUDY    60  54  82 CALM      29.86R
$$

...OTHER TEXAS OBSERVATIONS...

CITY           SKY/WX    TMP DP  RH WIND       PRES   REMARKS
BROWNSVILLE    CLOUDY    62  62 100 NE8       29.83R
HOUSTON        DRIZZLE   51  51 100 NE13      29.91S FOG
COL. STATION   CLOUDY    50  48  93 NE15      29.91F
AUSTIN         CLOUDY    54  46  74 NE9       29.90S
WACO           CLOUDY    50  43  77 NE8       29.94R
FORT WORTH     CLOUDY    48  39  71 E7        29.97R
WICHITA FALLS  MOCLDY    44  39  82 E8        29.97R
LUBBOCK        CLEAR     50  29  44 SE17G29   29.81R
EL PASO        PTCLDY    58   4  11 NW10      29.71R
$$

...MARINE OBSERVATIONS...

STATION/POSITION TIME  SKY/WX   TEMP    WIND        PRES    VSBY  WAVE   SWELL
                                AIR SEA DIR/SP/G                  HT/PER HT/PER
                 (UTC)          (F)     (DEG/KT/KT) (MB)    (MI)  (FT/S) (FT/S)
PORT ARANSAS     0100            57 59   30/ 16/ 17 1009.7F
BUOY 90 E PORT A 0150                    40/ 10/ 12 1010.6R         4/ 8   3/ 8
BUOY 45 SE BAFFI 0150            65 66   50/ 14/ 17 1010.2R         4/ 8   3/ 8
BUOY 200 E PT IS 0150            75 74  140/ 16/ 17 1010.6R         5/ 7
BUOY 15 E GALVES 0150            59 61   30/ 14/ 17 1012.7R         3/ 5   2/ 8
$$



USA.gov is the U.S. government's official web portal to all federal, state and local government web resources and services.